Turnberry, United Kingdom

6:54 AM BST on July 21, 2017 (GMT +0100)
Turnberry

Weather History for 03135 - November, 2013

Change the Weather History Date:

Wednesday, November 6, 2013

  Actual Average Record
Temperature  
Mean Temperature 45 °F -  
Max Temperature 48 °F 47 °F - ()
Min Temperature 42 °F 37 °F - ()
Degree Days  
Heating Degree Days 20    
Moisture  
Dew Point 40 °F    
Average Humidity 77    
Maximum Humidity 87    
Minimum Humidity 71    
Precipitation  
Precipitation 0.00 in - - ()
Sea Level Pressure  
Sea Level Pressure 29.33 in    
Wind  
Wind Speed 13 mph ()    
Max Wind Speed 22 mph    
Max Gust Speed 25 mph    
Visibility 6.2 miles    
Events Rain    
T = Trace of Precipitation, MM = Missing Value Source: Averaged Metar Reports

Daily Weather History Graph

Daily Weather History Graph

Search for Another Location

Airport or City:

Trip Planner

Search our weather history database for the weather conditions in past years. The results will help you decide how hot, cold, wet, or windy it might be!

Date:

Astronomy

Nov. 06, 2013 Rise Set
Actual Time 7:34 AM GMT 4:28 PM GMT
Civil Twilight 6:54 AM GMT 5:08 PM GMT
Nautical Twilight 6:10 AM GMT 5:52 PM GMT
Astronomical Twilight 5:27 AM GMT 6:35 PM GMT
Moon 10:52 AM GMT (11/6) 7:02 PM GMT (11/6)
Length of Visible Light 10h 14m
Length of Day
8h 54m
Waxing Crescent, 12% of the Moon is Illuminated
Nov 6
Waxing Crescent
Nov 10
First Quarter
Nov 17
Full
Nov 25
Last Quarter
Dec 3
New

Hourly Weather History & Observations

Time (GMT) Temp. Windchill Dew Point Humidity Pressure Visibility Wind Dir Wind Speed Gust Speed Precip Events Conditions
12:50 AM 44.6 °F 36.6 °F 39.2 °F 81% 29.27 in 6.2 mi West 19.6 mph - N/A Rain Light Rain Showers
1:50 AM 42.8 °F 34.3 °F 37.4 °F 81% 29.30 in 6.2 mi West 19.6 mph - N/A Rain Light Rain Showers
2:50 AM 44.6 °F 38.1 °F 41.0 °F 87% 29.30 in 6.2 mi WSW 13.8 mph - N/A   Scattered Clouds
3:50 AM 42.8 °F 37.5 °F 37.4 °F 81% 29.30 in 6.2 mi WNW 9.2 mph - N/A Rain Light Rain Showers
4:50 AM 44.6 °F 39.2 °F 39.2 °F 81% 29.33 in 6.2 mi West 10.4 mph - N/A Rain Light Rain Showers
5:50 AM 46.4 °F 40.7 °F 39.2 °F 76% 29.33 in 6.2 mi WSW 12.7 mph - N/A   Scattered Clouds
6:20 AM 46.4 °F 40.1 °F 41.0 °F 81% 29.30 in 6.2 mi WSW 15.0 mph - N/A   Scattered Clouds
6:50 AM 46.4 °F 40.1 °F 39.2 °F 76% 29.33 in 6.2 mi West 15.0 mph - N/A   Mostly Cloudy
7:20 AM 46.4 °F 40.4 °F 39.2 °F 76% 29.33 in 6.2 mi West 13.8 mph - N/A   Mostly Cloudy
7:50 AM 46.4 °F 40.7 °F 39.2 °F 76% 29.33 in 6.2 mi WSW 12.7 mph - N/A   Mostly Cloudy
8:20 AM 46.4 °F 40.7 °F 39.2 °F 76% 29.33 in 6.2 mi WSW 12.7 mph - N/A   Mostly Cloudy
8:50 AM 46.4 °F 40.4 °F 41.0 °F 81% 29.33 in 6.2 mi SW 13.8 mph - N/A   Mostly Cloudy
9:20 AM 46.4 °F 40.4 °F 39.2 °F 76% 29.33 in 6.2 mi WSW 13.8 mph 25.3 mph N/A   Mostly Cloudy
9:50 AM 48.2 °F - 39.2 °F 71% 29.33 in 6.2 mi WSW 13.8 mph - N/A   Mostly Cloudy
10:20 AM 48.2 °F - 41.0 °F 76% 29.36 in 6.2 mi WSW 17.3 mph - N/A   Mostly Cloudy
10:50 AM 48.2 °F - 41.0 °F 76% 29.33 in 6.2 mi SW 16.1 mph - N/A   Mostly Cloudy
11:20 AM 48.2 °F - 41.0 °F 76% 29.33 in 6.2 mi SW 13.8 mph - N/A   Mostly Cloudy
11:50 AM 48.2 °F - 41.0 °F 76% 29.36 in 6.2 mi SW 15.0 mph - N/A   Mostly Cloudy
12:20 PM 48.2 °F - 41.0 °F 76% 29.33 in 6.2 mi SW 12.7 mph - N/A   Mostly Cloudy
12:50 PM 48.2 °F - 41.0 °F 76% 29.33 in 6.2 mi WSW 16.1 mph - N/A   Scattered Clouds
1:20 PM 48.2 °F - 41.0 °F 76% 29.33 in 6.2 mi SW 15.0 mph - N/A   Scattered Clouds
1:50 PM 48.2 °F - 41.0 °F 76% 29.33 in 6.2 mi SW 10.4 mph - N/A   Scattered Clouds
2:20 PM 48.2 °F - 41.0 °F 76% 29.33 in 6.2 mi SSW 10.4 mph - N/A   Scattered Clouds
2:50 PM 48.2 °F - 41.0 °F 76% 29.33 in 6.2 mi SW 10.4 mph - N/A   Scattered Clouds
3:20 PM 48.2 °F - 41.0 °F 76% 29.30 in 6.2 mi SW 11.5 mph - N/A   Scattered Clouds
3:50 PM 48.2 °F - 41.0 °F 76% 29.30 in 6.2 mi SW 11.5 mph - N/A   Scattered Clouds
4:20 PM 48.2 °F - 41.0 °F 76% 29.30 in 6.2 mi WSW 13.8 mph - N/A Rain Light Rain Showers
4:50 PM 48.2 °F - 41.0 °F 76% 29.30 in 6.2 mi WSW 13.8 mph - N/A Rain Light Rain Showers
5:20 PM 48.2 °F - 41.0 °F 76% 29.33 in 6.2 mi WSW 11.5 mph - N/A Rain Light Rain Showers
5:50 PM 48.2 °F - 41.0 °F 76% 29.33 in 6.2 mi WSW 10.4 mph - N/A Rain Light Rain Showers
6:20 PM 48.2 °F - 39.2 °F 71% 29.33 in 6.2 mi WNW 12.7 mph - N/A   Scattered Clouds
6:50 PM 46.4 °F 43.5 °F 41.0 °F 81% 29.33 in 6.2 mi West 5.8 mph - N/A Rain Light Rain Showers
7:20 PM 48.2 °F - 41.0 °F 76% 29.33 in 6.2 mi West 13.8 mph - N/A   Scattered Clouds
7:50 PM 48.2 °F - 39.2 °F 71% 29.33 in 6.2 mi WSW 16.1 mph - N/A   Scattered Clouds
8:20 PM 48.2 °F - 39.2 °F 71% 29.36 in 6.2 mi WSW 12.7 mph - N/A   Scattered Clouds
8:50 PM 48.2 °F - 41.0 °F 76% 29.36 in 6.2 mi WSW 15.0 mph - N/A   Scattered Clouds
9:20 PM 46.4 °F 39.8 °F 39.2 °F 76% 29.36 in 6.2 mi WSW 16.1 mph - N/A   Scattered Clouds
9:50 PM 46.4 °F 40.1 °F 37.4 °F 71% 29.36 in 6.2 mi NW 15.0 mph - N/A   Scattered Clouds
10:20 PM 44.6 °F 39.2 °F 39.2 °F 81% 29.39 in 6.2 mi West 10.4 mph - N/A   Scattered Clouds
10:50 PM 46.4 °F 39.8 °F 39.2 °F 76% 29.39 in 6.2 mi West 16.1 mph - N/A   Scattered Clouds
11:20 PM 44.6 °F 36.1 °F 37.4 °F 76% 29.42 in 6.2 mi West 21.9 mph - N/A   Scattered Clouds
11:50 PM 42.8 °F 39.3 °F 37.4 °F 81% 29.42 in 6.2 mi West 5.8 mph - N/A Rain Light Rain Showers